Temperature
8 8 8 8 8 8 8 9 10 10 10 9 9 9 8 8 7 7 7 6 7 7 8 8 8 9 9 9 9 10 10 10 10 10 9 9 9 9 9 9 8 8 8 8
7 8 8 8 8 8 8 9 9 9 9 9 8 8 7 7 6 6 6 6 6 7 7 7 8 8 8 8 8 9 9 9 9 9 9 8 8 8 8 8 8 8 8 7
8 8 8 9 8 8 8 8 9 9 9 8 8 7 7 6 6 5 5 5 5 6 6 7 7 7 7 7 8 8 8 8 8 8 8 7 7 7 7 7 7 7 7 7
8 8 7 8 7 7 7 7 7 7 7 7 7 6 5 5 5 5 4 4 5 5 6 6 6 6 7 7 7 7 7 7 7 7 7 6 6 6 6 6 6 6 6 6
8 8 8 8 7 7 8 8 7 7 7 6 5 6 5 4 4 4 4 4 4 5 5 5 5 6 6 6 6 6 6 6 6 6 6 6 6 6 6 6 6 6 6 5
8 8 8 9 7 6 7 8 7 6 6 6 6 8 7 4 4 4 4 4 4 4 4 4 5 5 5 5 5 5 5 5 5 5 5 5 5 5 5 5 5 5 5 5
7 8 9 7 6 6 8 9 6 5 5 5 6 6 4 3 3 3 3 3 4 4 4 4 4 4 4 4 4 4 4 4 4 4 4 4 4 4 4 4 4 4 4 4
7 7 8 6 6 7 8 5 5 4 4 4 4 3 3 3 3 3 3 3 3 3 3 3 3 3 3 3 3 3 3 3 3 3 3 3 3 3 3 3 3 3 3 3
8 8 6 5 5 5 5 4 4 4 4 3 3 3 2 2 2 2 2 2 2 2 2 2 2 2 2 2 2 2 2 3 3 3 3 2 2 2 2 2 2 2 2 3
6 6 5 4 4 4 4 4 4 4 3 3 2 2 2 2 1 1 1 1 1 1 1 1 1 1 1 1 1 1 1 2 2 2 2 2 1 1 1 1 1 1 2 2
6 5 4 3 3 4 4 4 4 3 3 2 2 2 1 1 1 1 1 0 0 0 0 0 0 0 0 0 0 0 0 1 1 1 1 1 1 1 1 1 1 1 1 1
7 6 6 5 4 4 4 3 3 3 2 2 1 1 1 0 0 0 -0 -0 -0 -0 -0 -0 -0 -1 -1 -1 -1 -1 -1 -1 -1 -0 -0 -0 -0 -0 0 0 0 0 0 0
5 4 4 4 4 3 3 3 3 2 2 1 1 0 0 -0 -0 -1 -1 -1 -1 -1 -1 -1 -1 -1 -1 -2 -2 -2 -2 -1 -2 -1 -1 -1 -1 -1 -1 -1 -0 -0 -0 -0
4 4 3 3 3 3 3 2 2 1 1 1 0 0 -0 -1 -1 -1 -1 -1 -1 -1 -2 -2 -2 -2 -2 -2 -2 -2 -2 -2 -2 -2 -2 -2 -2 -2 -2 -2 -2 -1 -1 -1
3 3 3 3 3 2 2 2 1 1 1 0 -0 -0 -1 -1 -1 -1 -1 -2 -2 -2 -2 -2 -2 -3 -3 -3 -3 -3 -3 -3 -3 -3 -3 -3 -3 -3 -3 -3 -3 -2 -2 -2
2 2 2 2 2 2 1 1 1 1 0 -0 -1 -1 -1 -2 -2 -2 -2 -2 -2 -2 -2 -3 -3 -3 -3 -3 -3 -3 -4 -4 -4 -4 -4 -4 -4 -4 -4 -4 -3 -3 -3 -2
2 1 2 2 2 1 1 1 0 0 -0 -1 -1 -1 -2 -2 -2 -2 -2 -3 -3 -3 -3 -3 -3 -3 -4 -4 -4 -4 -4 -4 -4 -4 -4 -5 -5 -5 -4 -4 -4 -4 -3 -3
3 3 2 2 2 1 1 0 -0 -0 -1 -1 -2 -2 -2 -3 -3 -3 -3 -3 -3 -3 -3 -3 -4 -4 -4 -4 -4 -5 -5 -5 -5 -5 -5 -5 -5 -5 -5 -5 -5 -4 -4 -4
2 2 2 1 1 0 0 -0 -1 -1 -1 -2 -2 -2 -3 -3 -3 -3 -4 -4 -4 -4 -4 -4 -4 -4 -4 -5 -5 -5 -5 -5 -5 -5 -6 -6 -6 -6 -5 -5 -5 -5 -5 -4
1 1 1 1 0 -0 -0 -1 -1 -2 -2 -2 -3 -3 -3 -3 -4 -4 -4 -4 -4 -5 -5 -5 -5 -5 -5 -5 -5 -6 -6 -6 -6 -6 -6 -6 -6 -6 -6 -6 -6 -5 -5 -5
1 1 0 0 -0 -1 -1 -1 -2 -2 -3 -3 -3 -4 -4 -4 -4 -5 -5 -5 -5 -5 -5 -5 -5 -5 -6 -6 -6 -6 -6 -7 -7 -7 -7 -7 -7 -7 -6 -6 -6 -6 -6 -6
0 0 -0 -0 -1 -1 -2 -2 -2 -3 -3 -4 -4 -4 -5 -5 -5 -5 -5 -6 -6 -6 -6 -6 -6 -6 -6 -7 -7 -7 -7 -7 -7 -7 -7 -7 -7 -7 -7 -7 -7 -6 -6 -6
-0 -0 -1 -1 -2 -2 -2 -3 -3 -4 -4 -4 -5 -5 -5 -6 -6 -6 -6 -6 -6 -6 -6 -6 -7 -7 -7 -7 -7 -7 -7 -7 -7 -7 -7 -7 -7 -7 -7 -7 -7 -7 -7 -6
-1 -1 -1 -2 -2 -3 -3 -3 -4 -4 -4 -5 -5 -6 -6 -6 -6 -7 -7 -7 -7 -7 -7 -7 -7 -7 -7 -7 -7 -7 -8 -8 -8 -8 -8 -8 -8 -7 -7 -7 -7 -7 -7 -7
-1 -2 -2 -2 -3 -3 -4 -4 -4 -5 -5 -5 -6 -6 -7 -7 -7 -7 -7 -7 -8 -8 -8 -7 -7 -7 -8 -8 -8 -8 -8 -8 -8 -8 -8 -8 -8 -8 -8 -8 -8 -8 -8 -7
-2 -2 -3 -3 -4 -4 -4 -5 -5 -6 -6 -6 -6 -7 -7 -8 -8 -8 -8 -8 -8 -8 -8 -8 -8 -8 -8 -8 -8 -8 -8 -8 -8 -8 -8 -8 -8 -8 -8 -8 -8 -8 -8 -8
-3 -3 -4 -4 -4 -5 -5 -6 -6 -6 -7 -7 -8 -8 -8 -8 -8 -8 -9 -9 -9 -9 -9 -9 -9 -9 -9 -9 -8 -8 -9 -8 -8 -8 -8 -8 -8 -8 -8 -8 -8 -8 -8 -8
Wind_Speed
3 2 1 1 2 2 2 2 2 4 4 3 4 5 6 7 8 9 10 10 10 9 8 8 8 7 6 5 5 3 2 1 0 1 2 3 4 5 5 6 7 7 8 7
2 3 2 2 2 1 1 1 3 4 3 2 3 4 5 6 7 8 8 8 8 8 8 8 8 7 6 6 5 3 2 1 1 1 2 3 4 5 6 6 6 7 8 8
1 2 1 1 2 1 1 1 2 2 2 2 2 3 3 4 5 6 6 7 7 8 7 7 7 7 7 6 5 4 3 2 1 1 2 3 3 5 6 6 7 7 7 8
1 0 1 2 2 1 2 1 1 1 1 1 2 3 4 4 4 5 5 6 7 7 7 6 6 7 7 6 5 4 3 3 2 2 3 3 4 5 6 6 6 7 7 8
1 1 2 1 1 2 2 1 2 3 2 2 3 2 2 4 4 4 4 5 5 6 6 6 6 7 6 6 5 4 4 3 3 4 4 5 5 6 6 6 6 7 7 8
2 2 2 2 2 1 2 2 3 3 3 3 3 2 0 2 3 4 4 5 5 6 6 6 7 7 6 6 6 5 6 5 5 5 5 6 6 6 5 6 6 6 7 8
3 3 3 1 2 3 3 1 4 4 3 4 2 1 1 2 3 4 5 5 6 6 6 6 7 6 6 6 6 7 7 6 5 5 6 6 6 5 5 5 6 7 7 7
5 5 3 4 5 5 0 3 4 4 3 3 2 0 0 2 3 5 5 6 7 6 7 7 6 6 7 7 8 7 7 6 6 5 5 4 5 5 5 6 7 8 8 8
4 2 2 3 3 1 2 3 4 4 3 3 2 1 1 3 4 5 6 7 7 7 8 7 6 7 8 8 8 8 7 6 6 5 5 5 5 6 5 6 6 7 7 7
4 5 4 4 4 3 3 3 3 3 3 2 2 2 2 3 4 5 6 7 7 8 8 8 8 7 8 9 8 8 8 7 6 5 5 5 5 5 6 6 7 7 8 8
5 4 3 5 7 6 5 4 4 3 2 2 2 2 3 4 5 6 6 7 7 8 9 9 9 9 8 8 8 8 8 7 7 6 6 5 6 6 7 8 8 8 8 7
6 5 5 4 5 7 7 6 5 4 3 2 2 3 4 5 5 6 7 7 7 8 9 9 9 9 9 8 8 8 8 7 6 6 5 5 6 6 9 10 12 14 12 10
2 3 3 2 5 6 6 5 4 4 3 3 3 3 4 5 6 6 7 7 8 9 9 9 9 9 9 8 8 8 8 8 7 6 6 6 6 6 7 7 11 13 14 15
4 5 3 4 5 5 5 4 3 3 2 3 3 3 4 5 7 7 8 8 9 9 9 9 10 10 9 8 8 8 8 8 7 7 6 6 7 7 7 7 6 6 9 13
7 5 3 4 5 5 4 4 3 3 3 3 3 4 5 6 7 8 8 8 9 9 9 9 10 10 9 8 8 9 8 7 6 7 7 7 7 7 7 7 7 7 5 6
7 5 5 6 6 5 5 4 4 4 4 4 4 5 6 7 8 9 8 8 8 10 10 10 10 10 9 8 9 8 8 9 8 7 7 7 7 7 7 7 7 6 6 6
9 7 7 6 6 6 5 5 4 4 4 5 6 6 7 7 8 9 9 8 9 10 10 10 11 10 9 8 8 7 7 8 9 8 7 7 7 7 7 7 7 6 6 6
6 6 7 6 6 5 4 4 3 4 4 5 5 6 7 8 9 10 10 10 10 11 10 9 9 9 9 8 7 7 7 7 7 7 7 7 7 7 7 7 7 7 6 6
6 6 5 4 4 4 3 3 3 3 4 4 5 7 8 8 9 10 10 10 10 11 9 8 10 9 9 8 8 7 7 7 7 7 7 9 9 7 7 7 7 7 6 5
6 6 6 4 3 2 2 2 2 3 3 4 5 7 8 8 8 9 9 10 9 8 10 11 10 9 9 8 9 7 7 8 8 8 7 7 7 7 7 7 7 7 6 5
7 6 5 4 2 1 1 1 2 3 4 4 6 7 9 9 9 8 8 9 8 8 9 11 9 8 8 8 9 7 7 8 8 8 8 7 7 7 7 7 6 6 5 5
6 5 4 3 2 1 1 1 2 4 4 5 6 7 8 9 9 8 8 8 9 11 10 8 8 9 11 11 8 8 8 8 8 7 7 7 7 7 6 6 6 5 5 4
5 4 3 2 1 1 1 2 3 4 5 6 6 7 8 8 7 7 8 7 8 12 10 9 11 15 15 10 8 8 8 8 8 7 7 7 7 6 6 6 5 5 4 4
5 4 3 2 1 0 2 3 3 4 5 6 6 7 7 7 7 6 7 11 13 14 10 12 15 16 14 8 8 8 7 7 7 7 7 6 6 6 6 5 5 5 4 4
4 3 3 2 0 1 2 3 4 5 5 5 6 7 6 5 7 8 9 10 12 13 10 11 14 14 10 7 7 7 7 7 7 7 6 6 6 5 5 5 5 4 4 3
3 2 1 1 0 1 2 3 3 4 5 6 6 6 6 6 7 8 8 9 11 12 10 8 9 9 7 7 7 7 7 7 7 6 6 5 6 5 5 4 5 4 4 3
3 2 1 1 1 1 2 3 4 5 5 6 8 7 7 8 8 8 9 8 8 8 8 8 7 7 7 7 7 6 6 6 5 5 5 5 4 4 4 5 4 3 3 3
Wind_Direction
50 18 47 33 18 40 58 48 86 108 107 85 68 70 67 63 63 62 55 48 42 38 34 31 30 28 23 19 15 8 4 359 353 166 164 169 170 170 169 169 170 168 165 165
54 37 50 30 3 22 75 93 126 127 107 76 78 75 71 62 56 52 45 39 35 31 27 23 18 12 8 6 360 350 336 318 305 202 184 181 179 176 175 174 173 172 174 173
81 349 292 332 328 256 164 145 176 168 128 125 102 77 66 55 49 44 35 29 24 17 11 6 1 355 353 349 343 337 325 310 276 232 215 202 190 187 188 184 182 184 185 185
107 176 207 61 42 237 170 200 210 146 115 116 95 88 70 52 44 37 26 17 11 5 360 355 349 346 341 339 337 329 316 302 277 247 232 217 208 205 200 194 193 194 195 195
166 207 251 217 192 193 200 204 204 200 176 130 121 132 104 55 35 24 12 3 358 352 347 344 345 341 335 335 332 321 308 294 275 253 239 227 221 216 208 203 203 203 199 198
177 225 230 126 128 184 210 209 170 184 174 163 175 229 158 40 7 3 359 355 349 345 343 344 344 338 332 331 327 320 311 296 280 258 244 237 232 226 220 213 212 206 206 206
209 240 260 131 146 173 205 91 143 167 165 168 192 324 44 7 355 351 346 343 341 340 341 340 338 333 328 327 325 319 309 296 282 264 253 247 240 230 223 219 214 212 213 214
200 220 234 143 161 197 66 102 147 161 171 175 173 136 3 345 341 340 337 337 337 332 330 332 334 329 322 322 322 317 308 297 286 274 261 247 239 231 225 220 218 216 216 218
217 226 69 169 195 130 142 165 171 174 178 179 197 237 291 317 327 329 329 329 328 323 320 323 328 326 317 320 322 317 309 301 294 284 267 249 237 231 226 223 224 222 218 220
242 239 223 220 215 206 193 186 172 172 176 193 220 255 288 304 313 317 320 322 322 319 316 318 323 322 317 316 317 312 307 303 296 286 276 262 248 235 231 228 228 227 225 225
238 239 227 224 213 200 183 168 158 159 172 194 222 262 287 296 305 310 313 315 315 313 311 312 317 316 317 317 315 309 304 300 294 282 274 267 256 246 241 240 236 234 232 229
221 201 197 196 186 184 181 182 179 176 186 206 240 265 281 289 298 303 307 310 308 307 307 309 312 311 313 315 313 307 303 300 295 290 283 276 270 267 250 249 251 248 245 239
206 150 170 143 160 172 181 182 181 192 208 231 251 266 279 287 294 299 301 303 303 303 304 306 307 307 310 313 309 301 296 295 293 288 284 281 276 273 276 267 256 253 248 244
174 151 165 175 175 172 168 164 168 185 214 236 253 267 277 285 292 294 297 300 300 298 298 300 301 302 307 309 304 297 294 290 287 285 283 280 278 275 273 273 274 267 252 246
190 195 175 151 152 154 155 160 178 206 226 245 255 267 278 285 290 293 296 299 297 294 295 297 297 299 306 305 300 296 293 290 290 288 283 280 277 275 272 269 269 270 268 255
167 160 155 160 167 169 175 190 213 233 247 261 268 275 281 283 286 289 292 295 294 294 296 296 293 296 302 299 296 292 288 285 288 288 285 281 278 275 273 270 268 266 262 260
159 170 178 185 189 193 203 213 228 245 258 265 274 283 287 288 288 291 296 298 293 288 289 288 289 294 296 293 291 290 291 290 288 286 283 281 279 276 274 271 270 268 265 260
181 172 174 177 185 195 207 216 232 248 261 274 284 285 286 287 290 297 302 304 300 294 289 287 289 294 292 290 288 286 285 287 288 285 284 282 282 279 275 271 270 270 270 267
148 143 144 149 161 177 193 216 240 258 272 279 282 284 287 288 291 296 301 300 297 296 300 304 301 295 290 288 290 283 281 283 285 284 283 284 284 279 276 273 271 269 267 265
134 131 130 129 133 154 186 224 254 269 279 285 287 289 292 294 298 299 298 292 285 289 299 304 302 295 292 290 288 281 279 280 282 284 284 284 283 280 278 276 273 270 268 265
139 137 137 139 141 156 198 242 264 279 290 290 287 291 296 300 302 299 296 295 300 307 306 303 300 297 296 296 291 282 278 279 280 281 281 281 281 281 281 278 274 271 269 270
143 143 145 148 157 191 281 284 284 291 297 297 295 296 300 302 304 300 288 284 298 311 312 304 302 301 304 301 290 283 281 281 281 281 279 279 279 279 279 280 278 277 276 273
140 140 144 153 179 256 307 307 305 300 299 301 301 303 303 303 303 300 301 304 309 311 311 301 305 307 307 302 290 284 282 282 282 282 282 282 281 281 281 281 280 279 278 276
132 131 130 120 116 299 312 320 316 306 301 299 298 301 303 305 303 296 295 304 311 310 306 304 308 310 310 300 292 288 285 283 283 283 283 281 279 278 278 278 278 279 278 276
129 126 124 131 155 300 312 318 315 312 312 309 309 309 304 298 297 305 307 307 311 312 308 308 312 313 310 299 295 292 289 286 286 286 283 282 281 279 277 275 274 275 275 274
129 132 137 141 328 325 322 319 315 318 319 317 316 317 316 312 307 307 308 310 310 312 312 309 310 311 307 302 299 297 295 295 293 289 286 285 284 283 281 279 278 274 274 273
113 108 104 78 7 337 322 316 313 315 318 314 312 315 317 317 315 316 316 315 315 315 313 312 311 309 306 304 302 301 299 297 295 292 290 288 287 285 283 280 279 276 273 270
Height
1459 1459 1458 1457 1456 1455 1454 1451 1450 1453 1455 1458 1460 1461 1462 1462 1462 1462 1461 1461 1461 1461 1461 1461 1460 1460 1460 1461 1460 1460 1460 1461 1461 1461 1461 1462 1463 1464 1465 1466 1467 1469 1470 1472
1461 1459 1458 1457 1457 1457 1457 1456 1456 1456 1459 1462 1463 1464 1464 1464 1464 1464 1464 1463 1463 1463 1462 1462 1461 1461 1460 1460 1459 1459 1459 1458 1458 1458 1459 1459 1460 1460 1461 1462 1463 1465 1466 1468
1457 1460 1457 1456 1459 1458 1459 1460 1458 1457 1461 1464 1465 1466 1466 1466 1466 1466 1466 1465 1464 1463 1463 1462 1461 1460 1459 1459 1458 1457 1456 1456 1455 1455 1455 1456 1456 1457 1458 1458 1460 1461 1462 1463
1459 1461 1462 1461 1463 1462 1461 1462 1463 1463 1464 1465 1466 1468 1468 1468 1468 1467 1467 1466 1465 1464 1463 1462 1461 1460 1459 1457 1456 1455 1454 1453 1453 1452 1452 1452 1453 1453 1454 1454 1455 1456 1457 1459
1460 1458 1457 1460 1463 1463 1461 1461 1464 1464 1465 1467 1468 1468 1468 1468 1468 1468 1467 1466 1465 1464 1462 1461 1459 1458 1457 1455 1454 1453 1452 1451 1450 1449 1449 1449 1449 1449 1450 1450 1451 1452 1453 1454
1461 1458 1456 1457 1462 1464 1464 1459 1463 1464 1465 1466 1467 1465 1467 1468 1468 1467 1466 1466 1464 1463 1461 1459 1457 1456 1454 1453 1451 1450 1448 1447 1446 1445 1445 1444 1445 1445 1445 1445 1446 1447 1448 1449
1460 1458 1453 1460 1463 1465 1461 1458 1463 1464 1465 1467 1467 1467 1469 1468 1467 1466 1465 1464 1463 1461 1459 1457 1455 1453 1452 1450 1448 1446 1444 1443 1441 1441 1440 1440 1439 1439 1440 1440 1440 1441 1442 1443
1459 1458 1457 1461 1462 1461 1460 1462 1463 1464 1466 1466 1467 1467 1467 1466 1466 1465 1463 1462 1460 1458 1456 1455 1452 1451 1448 1447 1445 1442 1440 1439 1437 1436 1435 1434 1434 1434 1434 1434 1435 1435 1436 1437
1456 1457 1459 1460 1460 1461 1461 1462 1463 1464 1465 1466 1466 1466 1466 1465 1464 1462 1461 1459 1457 1455 1453 1451 1449 1447 1445 1443 1440 1438 1436 1434 1433 1431 1430 1429 1429 1428 1428 1428 1429 1429 1429 1430
1458 1457 1458 1459 1459 1460 1461 1462 1462 1463 1464 1464 1465 1464 1464 1463 1462 1460 1458 1457 1454 1452 1450 1448 1446 1443 1441 1438 1436 1434 1432 1430 1428 1427 1425 1424 1423 1423 1422 1422 1422 1422 1423 1424
1456 1456 1457 1456 1457 1458 1459 1460 1461 1462 1463 1463 1463 1462 1462 1461 1459 1458 1456 1454 1451 1449 1447 1444 1442 1439 1437 1434 1432 1429 1427 1425 1424 1422 1420 1419 1418 1417 1417 1416 1417 1417 1417 1417
1448 1450 1452 1453 1454 1456 1457 1458 1460 1460 1461 1461 1461 1460 1459 1458 1457 1455 1453 1450 1448 1446 1443 1440 1438 1435 1433 1430 1428 1425 1423 1421 1419 1418 1416 1414 1413 1412 1410 1411 1410 1410 1410 1411
1447 1448 1450 1451 1452 1454 1456 1457 1458 1459 1459 1459 1458 1458 1456 1455 1453 1451 1449 1447 1444 1442 1439 1436 1434 1431 1428 1426 1423 1421 1419 1417 1415 1413 1411 1409 1407 1406 1404 1404 1403 1403 1403 1403
1445 1447 1448 1450 1451 1453 1454 1455 1456 1456 1456 1456 1455 1454 1453 1452 1450 1448 1446 1443 1441 1438 1435 1432 1430 1427 1424 1422 1419 1416 1414 1412 1410 1408 1406 1404 1402 1401 1399 1398 1397 1396 1396 1397
1443 1445 1447 1448 1449 1451 1452 1453 1454 1454 1454 1453 1452 1451 1450 1448 1446 1444 1442 1439 1437 1434 1431 1428 1425 1423 1420 1417 1414 1412 1409 1407 1405 1403 1401 1399 1397 1396 1394 1393 1392 1390 1390 1390
1440 1442 1444 1446 1447 1449 1450 1451 1451 1451 1451 1450 1449 1448 1446 1445 1442 1440 1438 1435 1432 1430 1427 1424 1421 1418 1416 1413 1410 1407 1404 1402 1400 1398 1395 1394 1392 1390 1389 1388 1386 1385 1384 1384
1437 1439 1442 1443 1445 1446 1447 1448 1448 1448 1448 1447 1446 1444 1442 1440 1438 1436 1433 1431 1428 1425 1422 1419 1416 1414 1411 1408 1405 1402 1400 1397 1395 1393 1390 1388 1387 1385 1383 1382 1381 1380 1379 1379
1435 1437 1439 1441 1443 1444 1445 1445 1445 1445 1444 1443 1442 1440 1438 1436 1433 1431 1429 1426 1423 1420 1418 1415 1411 1409 1406 1403 1400 1397 1395 1392 1390 1388 1385 1383 1381 1380 1378 1377 1375 1374 1373 1373
1434 1436 1438 1440 1441 1442 1442 1442 1442 1442 1441 1439 1438 1436 1434 1431 1429 1426 1424 1421 1418 1414 1412 1409 1406 1403 1401 1398 1396 1393 1390 1388 1385 1383 1380 1378 1376 1374 1373 1371 1370 1369 1368 1367
1432 1435 1436 1438 1439 1440 1440 1439 1439 1438 1437 1435 1433 1431 1429 1427 1424 1422 1419 1416 1413 1410 1407 1404 1401 1398 1395 1393 1391 1388 1385 1383 1380 1378 1376 1373 1371 1369 1367 1366 1365 1364 1363 1363
1431 1433 1435 1436 1437 1437 1437 1436 1435 1434 1433 1431 1429 1427 1424 1422 1420 1417 1413 1410 1408 1405 1402 1398 1396 1393 1390 1388 1385 1383 1380 1378 1376 1373 1371 1369 1367 1365 1363 1361 1360 1359 1358 1358
1430 1432 1433 1434 1435 1435 1434 1433 1432 1431 1429 1427 1425 1422 1420 1417 1415 1412 1409 1406 1403 1400 1397 1394 1391 1388 1385 1382 1380 1377 1375 1373 1371 1368 1366 1364 1363 1361 1359 1357 1356 1355 1354 1353
1429 1430 1431 1432 1432 1432 1431 1430 1429 1427 1425 1423 1421 1418 1415 1413 1410 1407 1404 1401 1398 1395 1391 1388 1386 1383 1380 1377 1374 1372 1370 1368 1366 1364 1362 1360 1358 1357 1355 1353 1352 1351 1350 1350
1428 1429 1429 1430 1430 1429 1428 1427 1425 1423 1421 1419 1417 1414 1411 1408 1405 1402 1399 1396 1393 1389 1386 1383 1380 1377 1374 1372 1369 1367 1365 1363 1361 1359 1357 1355 1354 1352 1351 1350 1348 1347 1346 1346
1426 1427 1427 1427 1427 1426 1425 1423 1421 1419 1417 1415 1413 1410 1407 1404 1401 1397 1394 1391 1388 1384 1381 1378 1375 1372 1369 1367 1364 1362 1360 1358 1356 1354 1353 1351 1350 1348 1347 1346 1345 1344 1343 1343
1424 1425 1425 1424 1424 1423 1421 1419 1418 1415 1413 1410 1408 1405 1402 1399 1396 1392 1389 1386 1383 1380 1376 1373 1370 1367 1364 1362 1360 1357 1355 1353 1352 1350 1349 1347 1346 1345 1343 1342 1341 1340 1340 1339
1422 1422 1422 1422 1421 1419 1418 1416 1414 1412 1409 1406 1403 1401 1398 1395 1391 1388 1385 1381 1378 1375 1372 1369 1366 1363 1360 1358 1356 1353 1351 1349 1348 1346 1345 1344 1342 1341 1340 1339 1338 1337 1336 1336